Weather History for Fort Polk, LA

Change the Weather History Date:

Monday, December 10, 2012

  Actual Average (KPOE) Record (KPOE)
Temperature  
Mean Temperature 54 °F -  
Max Temperature 70 °F 59 °F 80 °F (2007)
Min Temperature 37 °F 40 °F 34 °F (2013)
Degree Days  
Heating Degree Days 12    
Growing Degree Days 4 (Base 50)    
Moisture  
Dew Point 48 °F    
Average Humidity 80    
Maximum Humidity 100    
Minimum Humidity 40    
Precipitation  
Precipitation 1.32 in - - ()
Sea Level Pressure  
Sea Level Pressure 29.94 in    
Wind  
Wind Speed 3 mph (NW)    
Max Wind Speed 10 mph    
Max Gust Speed 20 mph    
Visibility 8 miles    
Events Rain , Thunderstorm    
Averages and records for this station are not official NWS values.
T = Trace of Precipitation, MM = Missing Value Source: NWS Daily Summary

Daily Weather History Graph

Daily Weather History Graph

Search for Another Location

Airport:

Trip Planner

Search our weather history database for the weather conditions in past years. The results will help you decide how hot, cold, wet, or windy it might be!

Date:

Astronomy

Dec. 10, 2012 Rise Set
Actual Time 6:59 AM CST 5:10 PM CST
Civil Twilight 6:32 AM CST 5:36 PM CST
Nautical Twilight 6:02 AM CST 6:06 PM CST
Astronomical Twilight 5:33 AM CST 6:36 PM CST
Moon 3:50 AM CST (12/10) 2:53 PM CST (12/10)
Length of Visible Light 11h 03m
Length of Day
10h 10m
Waning Crescent, 10% of the Moon is Illuminated
Dec 10
Waning Crescent
Dec 13
New
Dec 19
First Quarter
Dec 28
Full
Jan 4
Last Quarter

Hourly Weather History & Observations

Time (CST) Temp. Windchill Dew Point Humidity Pressure Visibility Wind Dir Wind Speed Gust Speed Precip Events Conditions
12:33 AM 69.8 °F - 68.0 °F 94% 29.81 in 10.0 mi Calm Calm - N/A   Overcast
12:41 AM 69.8 °F - 66.2 °F 88% 29.80 in 10.0 mi Calm Calm - N/A   Overcast
12:54 AM 70.0 °F - 66.9 °F 90% 29.87 in 10.0 mi Calm Calm - N/A   Overcast
1:31 AM 69.8 °F - 66.2 °F 88% 29.78 in 9.0 mi Calm Calm - 0.00 in Rain Light Rain
1:54 AM 70.0 °F - 66.9 °F 90% 29.85 in 8.0 mi SW 3.5 mph - 0.00 in   Overcast
2:12 AM 66.2 °F - 64.4 °F 94% 29.77 in 10.0 mi Variable 3.5 mph - N/A Thunderstorm Thunderstorm
2:22 AM 66.2 °F - 62.6 °F 88% 29.77 in 10.0 mi Variable 3.5 mph - 0.00 in Rain , Thunderstorm Light Thunderstorms and Rain
2:44 AM 64.4 °F - 62.6 °F 94% 29.76 in 1.8 mi Variable 5.8 mph - 0.17 in Rain , Thunderstorm Heavy Thunderstorms and Rain
2:51 AM 64.4 °F - 62.6 °F 94% 29.75 in 0.8 mi Variable 4.6 mph - 0.42 in Rain , Thunderstorm Heavy Thunderstorms and Rain
2:54 AM 64.0 °F - 62.1 °F 93% 29.84 in 0.8 mi Variable 3.5 mph - 0.48 in Rain , Thunderstorm Heavy Thunderstorms and Rain
3:13 AM 64.4 °F - 62.6 °F 94% 29.75 in 1.0 mi Variable 4.6 mph - 0.63 in Rain , Thunderstorm Heavy Thunderstorms and Rain
3:24 AM 64.4 °F - 62.6 °F 94% 29.76 in 3.0 mi Calm Calm - 0.68 in Rain , Thunderstorm Heavy Thunderstorms and Rain
3:29 AM 62.6 °F - 62.6 °F 100% 29.75 in 1.8 mi Variable 4.6 mph - 0.75 in Rain , Thunderstorm Heavy Thunderstorms and Rain
3:41 AM 62.6 °F - 60.8 °F 94% 29.77 in 3.0 mi Variable 5.8 mph - 0.81 in Rain , Thunderstorm Thunderstorms and Rain
3:54 AM 61.0 °F - 59.0 °F 93% 29.86 in 7.0 mi Variable 5.8 mph - 0.82 in Rain , Thunderstorm Light Thunderstorms and Rain
4:11 AM 59.0 °F - 57.2 °F 94% 29.78 in 5.0 mi Calm Calm - 0.01 in Rain Light Rain
4:40 AM 57.2 °F - 55.4 °F 94% 29.79 in 3.0 mi Calm Calm - 0.01 in   Overcast
4:54 AM 57.0 °F - 55.0 °F 93% 29.89 in 4.0 mi Variable 4.6 mph - 0.01 in   Overcast
5:10 AM 55.4 °F - 53.6 °F 94% 29.81 in 6.0 mi Variable 4.6 mph - 0.00 in Rain Light Rain
5:54 AM 53.1 °F - 50.0 °F 89% 29.93 in 5.0 mi Variable 5.8 mph - 0.00 in Rain Light Rain
6:54 AM 50.0 °F - 48.0 °F 93% 29.96 in 6.0 mi NNW 8.1 mph - 0.00 in Rain Light Rain
7:39 AM 48.2 °F - 44.6 °F 87% 29.91 in 9.0 mi Variable 4.6 mph - 0.01 in   Overcast
7:54 AM 48.0 °F - 44.1 °F 86% 30.01 in 10.0 mi NNW 10.4 mph 19.6 mph 0.01 in   Overcast
8:54 AM 46.0 °F 43.1 °F 39.9 °F 79% 30.04 in 10.0 mi Variable 5.8 mph 17.3 mph N/A   Overcast
9:54 AM 46.9 °F - 39.0 °F 74% 30.05 in 10.0 mi Variable 5.8 mph - N/A   Overcast
10:04 AM 46.4 °F 43.5 °F 37.4 °F 71% 29.97 in 10.0 mi Variable 5.8 mph - N/A   Overcast
10:45 AM 48.2 °F - 37.4 °F 66% 29.97 in 10.0 mi North 8.1 mph - N/A   Mostly Cloudy
10:54 AM 48.9 °F - 37.9 °F 66% 30.04 in 10.0 mi Variable 4.6 mph - N/A   Overcast
11:54 AM 48.9 °F - 37.0 °F 64% 30.04 in 10.0 mi Variable 5.8 mph - N/A   Overcast
12:54 PM 51.1 °F - 36.0 °F 56% 30.02 in 10.0 mi Variable 3.5 mph - N/A   Overcast
1:54 PM 51.1 °F - 35.1 °F 54% 30.01 in 10.0 mi Variable 5.8 mph - N/A   Partly Cloudy
2:54 PM 52.0 °F - 32.0 °F 47% 30.02 in 10.0 mi Variable 5.8 mph - N/A   Clear
3:54 PM 53.1 °F - 28.9 °F 40% 30.03 in 10.0 mi Variable 4.6 mph - N/A   Clear
4:54 PM 48.9 °F - 32.0 °F 52% 30.76 in 10.0 mi Calm Calm - N/A   Clear
5:54 PM 46.0 °F - 35.1 °F 66% 30.05 in 10.0 mi Calm Calm - N/A   Clear
6:54 PM 44.1 °F 42.5 °F 34.0 °F 68% 30.07 in 10.0 mi Variable 3.5 mph - N/A   Clear
7:54 PM 43.0 °F - 33.1 °F 68% 30.10 in 10.0 mi Calm Calm - N/A   Clear
8:54 PM 39.9 °F - 33.1 °F 77% 30.12 in 10.0 mi Calm Calm - N/A   Clear
9:54 PM 39.0 °F - 30.9 °F 73% 30.14 in 10.0 mi Calm Calm - N/A   Clear
10:54 PM 37.9 °F 35.5 °F 30.0 °F 73% 30.15 in 10.0 mi Variable 3.5 mph - N/A   Clear
11:54 PM 37.0 °F - 30.0 °F 76% 30.16 in 10.0 mi Calm Calm - N/A   Clear